Reaktor Hello World (43743 NORAD) Tracking and Keplerian Element Data

This shows tracking and keplerian element data for the satellite.

Feedback or suggestion? Click here.




ElementValue
Catalog43743
NameReaktor Hello World
Epoch Orbit756
Epoch Day17.81963455
Epoch Year2019
RAAN87.868
Inclination97.4798
Eccentricity0.0019257
Argument of Perigee146.8104
Mean Anonmoly350.9886
Mean Motion15.26230244
Decay Rate7.74E-06
L11 43743U 18096AA 19017.81963455 .00000774 00000-0 32645-4 0 9996
L22 43743 97.4798 87.8680 0019257 146.8104 350.9886 15.26230244 7568

Live tracking and technical data element details for Reaktor Hello World (NORAD 43743). Reaktor Hello World can be tracked NOW for your location showing map with azimuth and elevation plus other details from your city location.

Track the satellite on the map from your city or location and see movement details for azimuth, elevation, latitude, longitude, range, height, and movement on the map or in text.







IsCatalogInMostPopularTable: catalog: 43743, numindb: 61
Update: records affected: 1



GetName: 43743 Reaktor Hello World

Hit Count: updated at: Wed, 23 Jan 2019 02:39:35 GMT